Weather History for KFLL - January, 2014

Change the Weather History Date:

Wednesday, January 22, 2014

  Actual Average Record
Temperature  
Mean Temperature 58 °F 69 °F  
Max Temperature 64 °F 76 °F 88 °F (1926)
Min Temperature 51 °F 62 °F 29 °F (1985)
Degree Days  
Heating Degree Days 7 1  
Month to date heating degree days 63 38  
Since 1 July heating degree days 67 70  
Cooling Degree Days 0 5  
Month to date cooling degree days 97 119  
Year to date cooling degree days 97 119  
Growing Degree Days 8 (Base 50)    
Moisture  
Dew Point 42 °F    
Average Humidity 63    
Maximum Humidity 93    
Minimum Humidity 32    
Precipitation  
Precipitation 0.00 in 0.17 in 2.00 in (1936)
Month to date precipitation 1.82 2.06  
Year to date precipitation 1.82 2.06  
Snow  
Snow 0.00 in - - ()
Month to date snowfall 0.0  
Since 1 July snowfall 0.0  
Snow Depth 0.00 in    
Sea Level Pressure  
Sea Level Pressure 30.05 in    
Wind  
Wind Speed 10 mph (NW)    
Max Wind Speed 23 mph    
Max Gust Speed 30 mph    
Visibility 10 miles    
Events      
T = Trace of Precipitation, MM = Missing Value Source: NWS Daily Summary

Daily Weather History Graph

Daily Weather History Graph

Search for Another Location

Airport or City:

Trip Planner

Search our weather history database for the weather conditions in past years. The results will help you decide how hot, cold, wet, or windy it might be!

Date:

Astronomy

Jan. 22, 2014 Rise Set
Actual Time 7:08 AM EST 5:56 PM EST
Civil Twilight 6:43 AM EST 6:20 PM EST
Nautical Twilight 6:15 AM EST 6:48 PM EST
Astronomical Twilight 5:48 AM EST 7:16 PM EST
Moon 11:45 PM EST (1/22) 10:47 AM EST (1/22)
Length of Visible Light 11h 37m
Length of Day
10h 47m
Waning Gibbous, 65% of the Moon is Illuminated
Jan 22
Waning Gibbous
Jan 24
Last Quarter
Jan 30
New
Feb 6
First Quarter
Feb 14
Full

Hourly Weather History & Observations

Time (EST) Temp. Dew Point Humidity Pressure Visibility Wind Dir Wind Speed Gust Speed Precip Events Conditions
12:53 AM 64.0 °F 61.0 °F 90% 29.90 in 10.0 mi West 9.2 mph - N/A   Partly Cloudy
1:53 AM 63.0 °F 60.1 °F 90% 29.90 in 10.0 mi West 10.4 mph - N/A   Partly Cloudy
2:37 AM 62.6 °F 59.0 °F 88% 29.90 in 10.0 mi WNW 15.0 mph 20.7 mph N/A   Mostly Cloudy
2:53 AM 62.1 °F 59.0 °F 90% 29.91 in 10.0 mi WNW 11.5 mph 20.7 mph N/A   Mostly Cloudy
3:13 AM 60.8 °F 57.2 °F 88% 29.92 in 10.0 mi NW 17.3 mph 26.5 mph N/A   Mostly Cloudy
3:37 AM 57.2 °F 51.8 °F 82% 29.94 in 10.0 mi NW 15.0 mph 27.6 mph N/A   Partly Cloudy
3:53 AM 57.9 °F 52.0 °F 81% 29.94 in 10.0 mi NW 15.0 mph 24.2 mph N/A   Partly Cloudy
4:53 AM 55.0 °F 46.9 °F 74% 29.97 in 10.0 mi NW 12.7 mph 20.7 mph N/A   Clear
5:53 AM 53.1 °F 45.0 °F 74% 30.01 in 10.0 mi NW 13.8 mph 20.7 mph N/A   Clear
6:53 AM 51.1 °F 39.0 °F 63% 30.04 in 10.0 mi NW 13.8 mph 18.4 mph N/A   Partly Cloudy
7:53 AM 51.1 °F 37.9 °F 61% 30.07 in 10.0 mi NNW 12.7 mph - N/A   Partly Cloudy
8:53 AM 53.1 °F 39.0 °F 59% 30.09 in 10.0 mi NW 13.8 mph 21.9 mph N/A   Partly Cloudy
9:53 AM 55.9 °F 39.0 °F 53% 30.11 in 10.0 mi NW 9.2 mph 19.6 mph N/A   Partly Cloudy
10:53 AM 57.9 °F 35.1 °F 42% 30.12 in 10.0 mi WNW 15.0 mph 20.7 mph N/A   Partly Cloudy
11:53 AM 60.1 °F 34.0 °F 38% 30.09 in 10.0 mi WNW 15.0 mph 20.7 mph N/A   Partly Cloudy
12:53 PM 60.1 °F 33.1 °F 36% 30.08 in 10.0 mi NW 12.7 mph - N/A   Partly Cloudy
1:53 PM 62.1 °F 32.0 °F 32% 30.06 in 10.0 mi NW 13.8 mph 20.7 mph N/A   Partly Cloudy
2:53 PM 63.0 °F 33.1 °F 33% 30.06 in 10.0 mi WNW 12.7 mph 17.3 mph N/A   Partly Cloudy
3:53 PM 63.0 °F 33.1 °F 33% 30.07 in 10.0 mi NW 10.4 mph 16.1 mph N/A   Partly Cloudy
4:53 PM 63.0 °F 32.0 °F 31% 30.09 in 10.0 mi NW 10.4 mph - N/A   Partly Cloudy
5:53 PM 57.9 °F 36.0 °F 44% 30.11 in 10.0 mi North 5.8 mph - N/A   Scattered Clouds
6:53 PM 55.0 °F 36.0 °F 49% 30.13 in 10.0 mi North 5.8 mph - N/A   Scattered Clouds
7:53 PM 54.0 °F 36.0 °F 51% 30.14 in 10.0 mi North 5.8 mph - N/A   Partly Cloudy
8:53 PM 53.1 °F 36.0 °F 52% 30.16 in 10.0 mi Calm Calm - N/A   Clear
9:53 PM 52.0 °F 35.1 °F 53% 30.17 in 10.0 mi Calm Calm - N/A   Clear
10:53 PM 51.1 °F 36.0 °F 56% 30.17 in 10.0 mi Calm Calm - N/A   Clear
11:53 PM 51.1 °F 37.0 °F 59% 30.17 in 10.0 mi NW 4.6 mph - N/A   Clear